Waarnemingen

Advertentie
Mijn weer
Yeovilton, Groot Brittannië (3853): temperatuur & dauwpunt: 17.05.2018 00:00:00 - 23.05.2018 00:00:00 (BST)Yeovilton, Groot Brittannië (3853): temperatuur -20cm & temperatuur -100cm: 17.05.2018 00:00:00 - 23.05.2018 00:00:00 (BST)Yeovilton, Groot Brittannië (3853): windsnelheid: 17.05.2018 00:00:00 - 23.05.2018 00:00:00 (BST)Yeovilton, Groot Brittannië (3853): windrichting: 17.05.2018 00:00:00 - 23.05.2018 00:00:00 (BST)Yeovilton, Groot Brittannië (3853): luchtdruk: 17.05.2018 00:00:00 - 23.05.2018 00:00:00 (BST)Yeovilton, Groot Brittannië (3853): zicht: 17.05.2018 00:00:00 - 23.05.2018 00:00:00 (BST)Yeovilton, Groot Brittannië (3853): Zonneschijnduur: 17.05.2018 00:00:00 - 23.05.2018 00:00:00 (BST)Yeovilton, Groot Brittannië (3853): neerslag: 17.05.2018 00:00:00 - 23.05.2018 00:00:00 (BST)
Datum & Tijd tt [°C] td [°C] tt -20cm [°C] tt -100cm [°C] ff [km/u] ff [kn] dd ppp [hPa] vv [km] sd [min] rr [mm]
23.05.2018 00:00:00 14,2 9,7 - - 11 6 NNO 1021,1 10 0 0,0
22.05.2018 23:00:00 16,2 10,0 - - 15 8 NNO 1020,6 10 0 0,0
22.05.2018 22:00:00 17,0 10,8 - - 11 6 N 1019,9 10 0 0,0
22.05.2018 21:00:00 17,6 11,5 - - 9 5 NNW 1018,9 10 0 0,0
22.05.2018 20:00:00 19,9 11,2 - - 13 7 N 1018,3 10 6 0,0
22.05.2018 19:00:00 20,6 11,0 - - 18 10 NO 1017,9 10 36 0,0
22.05.2018 18:00:00 20,9 10,9 - - 16 9 NO 1017,6 10 36 0,0
22.05.2018 17:00:00 21,8 10,5 - - 16 9 N 1017,2 10 42 0,0
22.05.2018 16:00:00 22,7 10,3 - - 18 10 N 1017,3 10 60 0,0
22.05.2018 15:00:00 22,1 10,5 - - 21 11 N 1017,4 10 60 0,0
22.05.2018 14:00:00 20,9 9,6 - - 18 10 NNO 1017,4 9 60 0,0
22.05.2018 13:00:00 20,0 11,2 - - 18 10 N 1017,6 9 60 0,0
22.05.2018 12:00:00 19,3 11,0 - - 16 9 N 1017,5 9 60 0,0
22.05.2018 11:00:00 17,6 11,7 - - 15 8 N 1017,4 9 42 0,0
22.05.2018 10:00:00 16,1 10,7 15,0 13,0 16 9 N 1017,4 9 18 0,0
22.05.2018 09:00:00 15,2 10,5 - - 13 7 N 1017,3 10 48 0,0
22.05.2018 08:00:00 14,4 10,2 - - 9 5 N 1017,0 10 54 0,0
22.05.2018 07:00:00 11,9 10,0 - - 8 4 W 1016,6 8 12 0,0
22.05.2018 06:00:00 10,2 8,5 - - 8 4 W 1016,4 8 0 0,0
22.05.2018 05:00:00 10,0 8,2 - - 9 5 NW 1016,0 8 0 0,0
22.05.2018 04:00:00 12,1 8,9 - - 9 5 N 1016,0 10 0 0,0
22.05.2018 03:00:00 12,4 9,5 - - 9 5 N 1016,1 10 0 0,0
22.05.2018 02:00:00 12,7 11,1 - - 5 3 W 1015,8 12 0 0,0
22.05.2018 01:00:00 12,8 11,1 - - 8 4 W 1015,7 16 - 0,0
22.05.2018 00:00:00 13,0 11,5 - - 2 1 WNW 1016,0 10 0 0,0
21.05.2018 23:00:00 14,0 11,5 - - 4 2 W 1015,9 10 0 0,0
21.05.2018 22:00:00 15,1 11,7 - - 5 3 WZW 1015,6 10 0 0,0
21.05.2018 21:00:00 15,7 12,0 - - 13 7 W 1015,4 10 0 0,0
21.05.2018 20:00:00 18,1 10,6 - - 9 5 O 1015,5 10 0 0,0
21.05.2018 19:00:00 18,5 12,2 - - 11 6 WNW 1015,0 10 0 0,0
21.05.2018 18:00:00 20,1 12,6 - - 9 5 WNW 1014,2 10 0 0,0
21.05.2018 17:00:00 21,7 11,1 - - 8 4 ZO 1014,2 10 6 0,0
21.05.2018 16:00:00 23,0 11,2 - - 9 5 NO 1014,6 9 42 0,0
21.05.2018 15:00:00 22,5 18,9 - - 13 7 NNO 1014,9 9 42 0,0
21.05.2018 14:00:00 21,4 18,2 - - 13 7 NNO 1015,4 9 54 0,0
21.05.2018 13:00:00 20,6 17,2 - - 13 7 NO 1015,7 10 60 0,0
21.05.2018 12:00:00 19,4 15,8 - - 9 5 NNO 1016,3 10 60 0,0
21.05.2018 11:00:00 18,2 15,1 - - 13 7 NNO 1016,6 10 60 0,0
21.05.2018 10:00:00 16,1 9,9 14,4 12,9 11 6 NNO 1017,0 8 60 0,0
21.05.2018 09:00:00 10,6 10,6 - - 2 1 W 1017,6 4,0 36 0,0
21.05.2018 08:00:00 8,4 8,4 - - 2 1 Z 1017,7 0,1 0 0,0
21.05.2018 07:00:00 7,2 7,1 - - 2 1 ZW 1017,7 0,1 0 0,0
21.05.2018 06:00:00 6,0 6,0 - - 5 3 W 1017,6 - 0 0,0
21.05.2018 05:00:00 6,3 6,2 - - 2 1 OZO 1017,7 0,1 0 0,0
21.05.2018 04:00:00 6,3 6,0 - - 2 1 ZZO 1018,2 3,5 0 0,0
21.05.2018 03:00:00 7,0 6,4 - - 2 1 W 1018,3 5 0 0,0
21.05.2018 02:00:00 7,5 6,8 - - 4 2 ZZO 1018,9 8 0 0,0
21.05.2018 01:00:00 8,8 8,3 - - 4 2 OZO 1019,4 3,9 - 0,0
21.05.2018 00:00:00 9,9 8,9 - - 2 1 WZW 1019,4 7 0 0,0
20.05.2018 23:00:00 11,3 10,4 - - 2 1 WZW 1019,6 5 0 0,0
20.05.2018 22:00:00 12,2 10,6 - - 8 4 W 1019,5 7 0 0,0
20.05.2018 21:00:00 14,1 11,5 - - 9 5 W 1019,2 9 0 0,0
20.05.2018 20:00:00 16,2 12,4 - - 9 5 ZW 1019,0 10 30 0,0
20.05.2018 19:00:00 18,4 12,8 - - 13 7 ZZW 1019,0 10 60 0,0
20.05.2018 18:00:00 19,5 12,9 - - 11 6 ZZW 1019,1 19 60 0,0
20.05.2018 17:00:00 20,3 10,8 - - 9 5 ZZO 1019,4 10 60 0,0
20.05.2018 16:00:00 20,6 11,2 - - 11 6 ZO 1020,0 10 48 0,0
20.05.2018 15:00:00 21,1 11,6 - - 8 4 ZZO 1020,7 10 54 0,0
20.05.2018 14:00:00 19,9 11,0 - - 13 7 OZO 1021,2 26 60 0,0
20.05.2018 13:00:00 19,4 10,5 - - 11 6 OZO 1021,7 19 60 0,0
20.05.2018 12:00:00 19,0 10,8 - - 9 5 O 1022,0 10 60 0,0
20.05.2018 11:00:00 17,3 9,3 - - 5 3 ZO 1022,4 10 60 0,0
20.05.2018 10:00:00 16,1 8,5 14,0 12,7 4 2 WZW 1022,9 45 60 0,0
20.05.2018 09:00:00 14,7 8,9 - - 5 3 OZO 1022,9 17 60 0,0
20.05.2018 08:00:00 11,7 7,5 - - 5 3 OZO 1022,9 23 60 0,0
20.05.2018 07:00:00 7,6 6,3 - - 4 2 OZO 1022,8 21 42 0,0
20.05.2018 06:00:00 5,2 4,5 - - 5 3 ZO 1022,9 10 0 0,0
20.05.2018 05:00:00 5,6 4,6 - - 2 1 O 1022,8 13 0 0,0
20.05.2018 04:00:00 6,1 4,8 - - 2 1 O 1022,6 15 0 0,0
20.05.2018 03:00:00 7,3 5,4 - - 5 3 OZO 1022,8 10 0 0,0
20.05.2018 02:00:00 7,5 5,6 - - 4 2 OZO 1022,9 10 0 0,0
20.05.2018 01:00:00 8,0 6,1 - - 2 1 Z 1023,0 10 - 0,0
20.05.2018 00:00:00 8,7 6,6 - - 4 2 ZO 1023,1 20 0 0,0
19.05.2018 23:00:00 10,4 6,8 - - 2 1 OZO 1023,2 10 0 0,0
19.05.2018 22:00:00 12,2 7,1 - - 5 3 Z 1023,1 10 0 0,0
19.05.2018 21:00:00 13,0 7,5 - - 8 4 Z 1022,7 10 18 0,0
19.05.2018 20:00:00 15,4 8,9 - - 9 5 ZZW 1022,5 10 60 0,0
19.05.2018 19:00:00 16,9 8,9 - - 13 7 ZZW 1022,6 26 60 0,0
19.05.2018 18:00:00 17,7 9,3 - - 18 10 ZZW 1022,6 10 60 0,0
19.05.2018 17:00:00 18,4 9,5 - - 21 11 ZZW 1022,7 25 60 0,0
19.05.2018 16:00:00 19,2 9,9 - - 18 10 ZZW 1022,8 10 60 0,0
19.05.2018 15:00:00 19,9 9,0 - - 8 4 NO 1023,0 10 60 0,0
19.05.2018 14:00:00 20,0 9,4 - - 9 5 ZO 1023,5 10 60 0,0
19.05.2018 13:00:00 18,9 7,7 - - 8 4 NNO 1023,8 10 60 0,0
19.05.2018 12:00:00 18,3 9,3 - - 5 3 ONO 1024,3 10 60 0,0
19.05.2018 11:00:00 17,1 9,8 - - 5 3 ZO 1024,4 10 60 0,0
19.05.2018 10:00:00 15,8 10,4 13,7 12,7 2 1 ZO 1024,6 10 60 0,0
19.05.2018 09:00:00 13,2 9,1 - - 2 1 OZO 1024,7 10 60 0,0
19.05.2018 08:00:00 9,0 7,4 - - 0 0 N 1024,8 10 60 0,0
19.05.2018 07:00:00 6,4 5,9 - - 2 1 ZO 1024,6 10 24 0,0
19.05.2018 06:00:00 4,6 4,0 - - 2 1 ZO 1024,4 10 0 0,0
19.05.2018 05:00:00 4,8 4,4 - - 0 0 N 1024,2 9 0 0,0
19.05.2018 04:00:00 5,4 4,9 - - 2 1 ONO 1024,2 17 0 0,0
19.05.2018 03:00:00 5,6 4,5 - - 2 1 O 1024,5 10 0 0,0
19.05.2018 02:00:00 6,8 5,5 - - 0 0 N 1024,7 24 0 0,0
19.05.2018 01:00:00 7,9 6,0 - - 5 3 O 1024,7 10 - 0,0
19.05.2018 00:00:00 8,8 5,8 - - 2 1 NW 1024,7 10 0 0,0
18.05.2018 23:00:00 10,1 6,4 - - 4 2 WNW 1024,9 10 0 0,0
18.05.2018 22:00:00 12,2 6,9 - - 5 3 N 1024,7 40 0 0,0
18.05.2018 21:00:00 13,8 8,0 - - 9 5 NW 1024,2 40 12 0,0
18.05.2018 20:00:00 16,8 7,8 - - 15 8 NW 1024,0 10 60 0,0
18.05.2018 19:00:00 18,5 8,3 - - 13 7 NW 1024,0 50 54 0,0
18.05.2018 18:00:00 17,6 8,1 - - 9 5 NO 1024,2 10 12 0,0
18.05.2018 17:00:00 17,7 8,2 - - 11 6 NW 1024,3 24 36 0,0
18.05.2018 16:00:00 17,2 8,5 - - 11 6 N 1024,6 27 0 0,0
18.05.2018 15:00:00 17,1 8,4 - - 5 3 NW 1024,8 10 12 0,0
18.05.2018 14:00:00 17,2 9,2 - - 4 2 ZW 1025,2 10 42 0,0
18.05.2018 13:00:00 16,1 7,7 - - 8 4 NO 1025,5 10 60 0,0
18.05.2018 12:00:00 15,7 9,0 - - 5 3 O 1025,8 15 60 0,0
18.05.2018 11:00:00 13,8 6,9 - - 8 4 ONO 1026,2 10 54 0,0
18.05.2018 10:00:00 12,5 7,5 13,5 12,7 8 4 WNW 1026,6 10 60 0,0
18.05.2018 09:00:00 11,2 7,3 - - 4 2 O 1026,7 15 60 0,0
18.05.2018 08:00:00 9,0 5,9 - - 4 2 O 1026,7 10 60 0,0
18.05.2018 07:00:00 7,1 5,2 - - 2 1 ONO 1026,7 10 30 0,0
18.05.2018 06:00:00 4,8 3,2 - - 4 2 NNO 1026,7 10 0 0,0
18.05.2018 05:00:00 4,5 3,2 - - 2 1 NNO 1026,6 10 0 0,0
18.05.2018 04:00:00 6,6 3,8 - - 5 3 NNO 1026,4 20 0 0,0
18.05.2018 03:00:00 7,5 4,0 - - 5 3 NO 1026,3 10 0 0,0
18.05.2018 02:00:00 7,8 4,0 - - 5 3 ONO 1026,4 10 0 0,0
18.05.2018 01:00:00 9,1 4,6 - - 8 4 ONO 1026,5 10 - 0,0
18.05.2018 00:00:00 9,7 4,5 - - 8 4 ONO 1026,5 10 0 0,0
17.05.2018 23:00:00 11,1 5,2 - - 8 4 O 1026,3 10 0 0,0
17.05.2018 22:00:00 11,8 5,4 - - 8 4 NO 1026,2 10 0 0,0
17.05.2018 21:00:00 14,0 5,2 - - 13 7 ONO 1025,7 10 12 0,0
17.05.2018 20:00:00 15,5 5,1 - - 15 8 NO 1025,7 10 60 0,0
17.05.2018 19:00:00 16,7 4,9 - - 15 8 ONO 1025,6 10 60 0,0
17.05.2018 18:00:00 17,0 5,0 - - 13 7 NO 1025,7 10 54 0,0
17.05.2018 17:00:00 16,6 4,6 - - 15 8 NNO 1026,0 10 42 0,0
17.05.2018 16:00:00 16,5 4,7 - - 16 9 NO 1026,1 25 42 0,0
17.05.2018 15:00:00 16,7 5,6 - - 15 8 NNO 1026,5 10 60 0,0
17.05.2018 14:00:00 16,2 5,7 - - 15 8 NO 1026,9 10 60 0,0
17.05.2018 13:00:00 15,2 4,7 - - 13 7 NO 1027,3 10 60 0,0
17.05.2018 12:00:00 14,1 4,3 - - 13 7 ONO 1027,6 10 60 0,0
17.05.2018 11:00:00 13,1 5,3 - - 21 11 NO 1028,0 10 60 0,0
17.05.2018 10:00:00 11,2 5,4 13,7 12,5 22 12 NO 1028,2 10 60 0,0
17.05.2018 09:00:00 9,5 4,9 - - 22 12 NO 1028,2 10 60 0,0
17.05.2018 08:00:00 8,1 5,4 - - 18 10 NO 1028,3 10 60 0,0
17.05.2018 07:00:00 7,0 5,0 - - 9 5 NNO 1028,4 10 24 0,0
17.05.2018 06:00:00 5,8 3,9 - - 5 3 NNO 1028,2 10 0 0,0
17.05.2018 05:00:00 6,2 4,1 - - 11 6 NO 1028,1 10 0 0,0
17.05.2018 04:00:00 7,9 4,9 - - 16 9 NO 1028,0 10 0 0,0
17.05.2018 03:00:00 8,5 5,4 - - 16 9 NO 1028,3 10 0 0,0
17.05.2018 02:00:00 9,0 5,9 - - 16 9 NO 1028,6 10 0 0,0
17.05.2018 01:00:00 9,1 6,3 - - 8 4 NNO 1028,5 10 - 0,0
17.05.2018 00:00:00 9,7 6,4 - - 13 7 NO 1028,3 35 0 0,0

tt = temperatuur
td = dauwpunt
tt -20cm = temperatuur -20cm
tt -100cm = temperatuur -100cm
ff = windsnelheid
dd = windrichting
ppp = luchtdruk
vv = zicht
sd = Zonneschijnduur
rr = neerslag

Weerstations in de omgeving